Regional Weather Roundup
Issued by NWS

Home | Current Version | Previous Version | Graphics & Text | Print | Product List | Glossary On
Versions: 1 2 3 4 5 6 7 8 9 10 11 12 13 14 15 16 17 18 19 20 21 22 23 24 25 26 27 28 29 30 31 32 33 34 35 36 37 38 39 40 41 42 43 44 45 46 47 48 49
000
ASUS45 KSLC 281310
RWRUT

UTAH REGIONAL WEATHER ROUNDUP
NATIONAL WEATHER SERVICE SALT LAKE CITY UT
700 AM MDT SAT MAR 28 2015

UTZ001>011-023>025-281400-

NORTHERN UTAH

CITY           SKY/WX    TMP DP  RH WIND       PRES   REMARKS
BRIGHAM CITY   CLEAR     39  33  79 SE3       30.10S
HILL AFB       PTCLDY    49  29  44 E15       30.11R
LOGAN          CLEAR     37  32  82 N3        30.10S
OGDEN          MOCLDY    48  30  49 S12       30.09S
PROVO AIRPORT  PTCLDY    43  32  65 SE6       30.15R
SALT LAKE CITY PTCLDY    50  33  52 SE8       30.09R
VERNAL         CLEAR     37  25  61 NW3       30.18S
WENDOVER       PTCLDY    41  25  52 CALM      30.10R
HEBER CITY     CLEAR     30  27  86 CALM      30.20S
WEST JORDAN    CLEAR     48  34  57 S13       30.11S

$$

UTZ012>022-026-027-281400-

SOUTHERN/CENTRAL UTAH

CITY           SKY/WX    TMP DP  RH WIND       PRES   REMARKS
BLANDING       PTCLDY    40  24  54 N3        30.30R
BRYCE CANYON   PTCLDY    30  24  78 W10       30.31S WCI  21
CEDAR CITY     CLEAR     39  24  55 CALM      30.20S
DELTA          CLEAR     40  30  66 E6        30.14S
HANKSVILLE     CLEAR     34  21  60 CALM      30.19R
MILFORD        CLEAR     38  22  52 S6        30.17R WCI  33
MOAB/CYNLANDS  CLEAR     38  21  50 CALM      30.15S
PRICE          CLEAR     40  22  48 CALM      30.20R
ST GEORGE      SUNNY     54  25  32 CALM      30.16R
KANAB          CLEAR     32  23  69 NE5       30.27R WCI  27

$$

REGIONAL REPORTS     COLORADO/ARIZONA

CITY           SKY/WX    TMP DP  RH WIND       PRES   REMARKS
CRAIG, CO      CLEAR     26  23  88 CALM      30.22S
GRAND JUNCTION CLEAR     42  26  53 E12       30.18R
RIFLE          CLEAR     33  25  72 E6        30.24R WCI  28
MONTROSE       CLEAR     37  25  61 SE8       30.25R WCI  31
CORTEZ         CLEAR     28  20  71 CALM      30.26R
PAGE, AZ       CLEAR     54  24  31 NW3       30.17R
GRAND CANYON   PTCLDY    25  19  78 CALM      30.31S
KINGMAN        CLEAR     50  25  37 SE8       30.13S
FLAGSTAFF      PTCLDY    28  19  69 CALM      30.32S

$$

REGIONAL REPORTS    NEVADA/IDAHO/WYOMING

CITY           SKY/WX    TMP DP  RH WIND       PRES   REMARKS
LAS VEGAS, NV  CLEAR     63  28  26 SW8       30.02R
ELY            CLEAR     34  17  50 S6        30.23R WCI  29
ELKO           CLEAR     35  26  69 CALM      30.18R
POCATELLO, ID  CLEAR     59  28  30 S13       30.02R
BURLEY         CLEAR     49  30  48 SW10      30.03R
EVANSTON, WY   PTCLDY    39  24  55 S9        30.20S WCI  33
ROCK SPRINGS   CLEAR     38  25  59 S3        30.18S

$$


USA.gov is the U.S. government's official web portal to all federal, state and local government web resources and services.